Regional Weather Roundup
Issued by NWS

Home | Current Version | Previous Version | Text Only | Print | Product List | Glossary Off
Versions: 1 2 3 4 5 6 7 8 9 10 11 12 13 14 15 16 17 18 19 20 21 22 23 24 25 26 27 28 29 30 31 32 33 34 35 36 37 38 39 40 41 42 43 44 45 46 47 48 49 50

000
ASUS43 KMPX 271010
RWRMN
WEATHER ROUNDUP FOR MINNESOTA
NATIONAL WEATHER SERVICE TWIN CITIES/CHANHASSEN MN
400 AM CST THU NOV 27 2014


NOTE: "FAIR" INDICATES FEW OR NO CLOUDS BELOW 12,000 FEET WITH NO
SIGNIFICANT WEATHER AND/OR OBSTRUCTIONS TO VISIBILITY. N/A MEANS
CURRENT SKY AND/OR WEATHER CONDITIONS ARE NOT AVAILABLE.

MNZ060>063-068>070-271100-
   Twin Cities Metro

CITY           SKY/WX    TMP DP  RH WIND       PRES   REMARKS
TWIN CITIES    CLEAR      2  -5  72 N13       30.47R WCI -15
ST PAUL        CLEAR      3  -4  72 NW10      30.49R WCI -12
CRYSTAL        CLEAR      3  -5  69 NW8       30.47R WCI -10
BLAINE         CLEAR      3  -2  78 NW6       30.46S WCI  -8
LAKEVILLE      CLEAR      1  -4  78 N9        30.44S WCI -14
EDEN PRAIRIE   CLEAR      2  -6  69 N10       30.45S WCI -14
SOUTH ST PAUL  CLEAR      4  -3  71 N7        30.46F WCI  -8
LAKE ELMO      FAIR       3  -2  78 N8        30.46R WCI -10
$$
MNZ001>005-007-008-013>017-022>024-027-028-271100-
   Northwest Minnesota

CITY           SKY/WX    TMP DP  RH WIND       PRES   REMARKS
BEMIDJI        PTCLDY   -15 -20  79 W3        30.45F
HALLOCK        PTCLDY   -15 -20  76 SE3       30.52F
ROSEAU         PTCLDY   -13 -18  77 CALM      30.50F
WARROAD        PTCLDY   -15 -18  84 W3        30.49S
THIEF RVR FALL MOCLDY   -11 -15  84 CALM      30.49F
CROOKSTON      PTCLDY   -13 -17  84 CALM      30.55S
FOSSTON        MOCLDY   -18 -24  76 CALM      30.49F
DETROIT LAKES  PTCLDY    -9 -15  77 CALM      30.48S
MOORHEAD       FAIR     -11 -13  92 CALM      30.55S
PARK RAPIDS    PTCLDY   -13 -17  82 NW5       30.45F WCI -25
MAHNOMEN       FAIR     -12 -17  81 CALM      30.49F
$$
MNZ006-009>011-018-025>026-271100-
   North Central Minnesota

CITY           SKY/WX    TMP DP  RH WIND       PRES   REMARKS
BAUDETTE       PTCLDY   -14 -18  82 VRB3      30.46F
FLAG ISLAND    PTCLDY   -15 -18  84 NW6       30.48S WCI -29
INTL FALLS     MOCLDY   -15 -21  74 CALM      30.46R
WASKISH        MOCLDY    -9 -15  77 CALM      30.47F
BIG FORK       CLEAR    -11 -17  77 CALM      30.45R
LONGVILLE      PTCLDY    -8 -11  84 W3        30.46S
GRAND RAPIDS   CLEAR     -9 -13  84 NW5       30.42S WCI -21
CRANE LAKE     CLEAR    -15 -18  84 CALM      30.47R
ORR            MOCLDY   -15 -20  76 CALM      30.40R
COOK           PTCLDY   -17 -22  76 CALM      30.42S
WALKER         FAIR     -12 -17  80 CALM      30.46S
$$
MNZ012-019>021-037-271100-
   Northeast Minnesota

CITY           SKY/WX    TMP DP  RH WIND       PRES   REMARKS
DULUTH         CLEAR     -7 -12  79 NW6       30.39R WCI -20
ELY            CLEAR    -11 -17  77 CALM      30.38S
HIBBING        PTCLDY    -7 -13  75 N8        30.42R WCI -23
EVELETH        MOCLDY    -6  -9  84 CALM      30.42R HAZE
DULUTH HARBOR  CLEAR      1  -6  71 NW10      30.49R WCI -14
TWO HARBORS    CLEAR     -2  -9  71 NW6       30.38S WCI -14
SILVER BAY     CLEAR     -2  -9  71 NW3       30.37S
GRAND MARAIS     N/A     -2 -12  62 N18G30    30.38F WCI -24
G MARAIS ARPRT PTCLDY   -11 -18  70 N7        30.28S WCI -26
$$
MNZ029>031-032-039>041-046>048-054>057-064-271100-
   West Central Minnesota

CITY           SKY/WX    TMP DP  RH WIND       PRES   REMARKS
FERGUS FALLS   PTCLDY    -9 -15  77 CALM      30.55S
WHEATON        MOCLDY    -9 -13  84 NW3       30.56F
MORRIS         PTCLDY   -11 -15  84 W6        30.51R WCI -25
ALEXANDRIA     PTCLDY    -5 -10  79 NW3       30.47R
ELBOW LAKE     FAIR      -9 -13  83 CALM      30.49F
WADENA         CLEAR     -9 -15  77 N3        30.46S
GLENWOOD       PTCLDY    -8 -11  84 CALM      30.48R
APPLETON       MOCLDY    -9 -13  84 W7        30.54S WCI -24
BENSON         PTCLDY   -11 -17  77 NW8       30.51S WCI -28
ORTONVILLE     MOCLDY    -8 -11  84 W6        30.53S WCI -21
MADISON        PTCLDY    -6 -11  77 NW8       30.54S WCI -21
WILLMAR        FAIR      -8 -13  77 NW7       30.49F WCI -22
$$
MNZ033>034-036-042>043-049>051-058-059-271100-
   Central Minnesota

CITY           SKY/WX    TMP DP  RH WIND       PRES   REMARKS
ST CLOUD       CLEAR     -2  -9  72 NW8       30.48S WCI -17
SAUK CENTRE    FAIR      -7 -11  83 N6        30.47F WCI -20
PAYNESVILLE    PTCLDY    -8 -12  85 W3        30.48S
AITKIN         CLEAR     -4 -11  71 NW3       30.44F
PINE RIVER     PTCLDY    -9 -13  84 W3        30.49S
BRAINERD       CLEAR     -6 -10  83 NW7       30.47S WCI -20
STAPLES        FAIR      -9 -13  84 N3        30.47S
LONG PRAIRIE   FAIR      -8 -11  84 NW5       30.47S WCI -19
LITTLE FALLS   CLEAR     -4  -9  77 CALM      30.49S
LITCHFIELD     PTCLDY    -2  -8  78 NW7       30.48S WCI -16
BUFFALO        CLEAR      0  -5  78 NW6       30.49S WCI -11
MAPLE LAKE     CLEAR     -1  -5  82 NW8       30.49S WCI -15
$$
MNZ037-044-045-052-053-271100-
   East Central Minnesota

CITY           SKY/WX    TMP DP  RH WIND       PRES   REMARKS
PRINCETON      CLEAR      0  -6  78 CALM      30.47S
MORA           CLEAR     -2  -8  78 NW8       30.49R WCI -17
CAMBRIDGE      CLEAR      1  -8  66 NW5       30.46S WCI  -8
RUSH CITY      MOCLDY    -1  -6  79 NW3       30.47R
MOOSE LAKE     CLEAR     -4  -8  84 N3        30.44R
HINCKLEY       FAIR       0  -6  78 NW9       30.46R WCI -16
CLOQUET        CLEAR     -6 -11  77 NW7       30.42R WCI -20
MCGREGOR       CLEAR     -6  -9  84 NW5       30.46S WCI -17
$$
MNZ071>073-080-081-089-090-097-098-271100-
   Southwest Minnesota

CITY           SKY/WX    TMP DP  RH WIND       PRES   REMARKS
MONTEVIDEO     MOCLDY    -8 -11  84 N8        30.54S WCI -23
GRANITE FALLS  PTCLDY    -7 -11  81 W8        30.54S WCI -22
CANBY          PTCLDY    -8 -12  84 W8        30.54S WCI -24
MARSHALL       FAIR      -9 -15  77 NW9       30.50S WCI -27
REDWOOD FALLS  PTCLDY    -5  -9  83 NW9       30.51S WCI -22
OLIVIA         PTCLDY    -4  -9  77 NW5       30.51S WCI -15
PIPESTONE      PTCLDY    -4  -9  77 N3        30.45S
WINDOM         MOCLDY    -6  -9  84 NW12      30.46S WCI -24
WORTHINGTON    MOCLDY    -6 -11  77 NW9       30.45F WCI -22
JACKSON        MOCLDY    -4  -9  77 NW12      30.45S WCI -22
TRACY          PTCLDY    -6 -10  81 NW9       30.50S WCI -23
SLAYTON        PTCLDY    -5 -10  81 NW9       30.46S WCI -22
$$
MNZ065>067-074>077-082>085-091>093-271100-
   South Central Minnesota

CITY           SKY/WX    TMP DP  RH WIND       PRES   REMARKS
MANKATO        MOCLDY    -6 -11  77 NW8       30.46R WCI -21
NEW ULM        MOCLDY    -6  -9  84 NW10      30.49R WCI -23
ST JAMES       MOCLDY    -6 -11  77 NW10      30.49R WCI -23
FAIRMONT       PTCLDY    -4  -9  77 NW15      30.44S WCI -25
GLENCOE        PTCLDY    -1  -6  80 NW7       30.47S WCI -15
FARIBAULT      PTCLDY     0  -6  78 NW6       30.44R WCI -12
OWATONNA       PTCLDY    -6 -11  77 W7        30.42S WCI -20
WASECA         PTCLDY    -6 -13  71 NW10      30.45S WCI -23
ALBERT LEA     PTCLDY     0  -6  78 W7        30.42R WCI -13
$$
MNZ078>079-086>088-094>096-271100-
   Southeast Minnesota

CITY           SKY/WX    TMP DP  RH WIND       PRES   REMARKS
ROCHESTER      CLEAR      6  -2  69 N14       30.37R WCI -11
RED WING         N/A      7  -2  66 N7        30.44R WCI  -5
STANTON        CLEAR      4  -4  69 N8        30.43R WCI  -9
DODGE CENTER   PTCLDY     1  -2  85 NW10      30.37S WCI -14
WINONA         MOCLDY    18  10  73 NW15G21   30.39R WCI   3
AUSTIN         CLEAR      3  -4  72 NW10      30.39R WCI -12
PRESTON        FLURRIES   9   6  84 N9        30.36R WCI  -4
$$
ABBREVIATIONS USED IN REMARKS
   TC - TEMPERATURES IN CELSIUS
  WCI - WIND CHILL INDEX
   HX - HEAT INDEX
  VSB - VISIBILITY
$$


USA.gov is the U.S. government's official web portal to all federal, state and local government web resources and services.